Time,TemperatureF,DewpointF,PressureIn,WindDirection,WindDirectionDegrees,WindSpeedMPH,WindSpeedGustMPH,Humidity,HourlyPrecipIn,Conditions,Clouds,dailyrainin,SoftwareType,DateUTC
2013-05-13 00:14:00,54.7,50.9,30.22,ENE,68,1.0,3.0,87,0.00,,,0.00,meteohub,2013-05-12 22:14:00,
2013-05-13 00:29:00,54.3,50.5,30.21,ENE,68,1.0,3.0,87,0.00,,,0.00,meteohub,2013-05-12 22:29:00,
2013-05-13 00:44:00,54.1,50.4,30.21,ENE,68,1.0,3.0,87,0.00,,,0.00,meteohub,2013-05-12 22:44:00,
2013-05-13 01:15:00,54.0,50.5,30.21,ENE,68,2.0,3.0,88,0.00,,,0.00,meteohub,2013-05-12 23:15:00,
2013-05-13 01:30:00,54.0,50.5,30.21,NE,45,1.0,5.0,88,0.00,,,0.00,meteohub,2013-05-12 23:30:00,
2013-05-13 01:46:00,53.8,50.4,30.22,NE,45,1.0,3.0,88,0.00,,,0.00,meteohub,2013-05-12 23:46:00,
2013-05-13 02:01:00,53.2,49.8,30.22,ENE,68,0.0,3.0,88,0.00,,,0.00,meteohub,2013-05-13 00:01:00,
2013-05-13 02:16:00,53.2,49.8,30.22,ENE,68,0.0,1.0,88,0.00,,,0.00,meteohub,2013-05-13 00:16:00,
2013-05-13 02:31:00,52.7,49.5,30.21,ENE,68,0.0,1.0,89,0.00,,,0.00,meteohub,2013-05-13 00:31:00,
2013-05-13 02:46:00,52.5,49.5,30.22,ENE,68,0.0,1.0,89,0.00,,,0.00,meteohub,2013-05-13 00:46:00,
2013-05-13 03:02:00,51.4,48.6,30.20,ENE,68,1.0,2.0,90,0.00,,,0.00,meteohub,2013-05-13 01:02:00,
2013-05-13 03:18:00,50.9,48.0,30.20,ENE,68,1.0,2.0,90,0.00,,,0.00,meteohub,2013-05-13 01:18:00,
2013-05-13 03:33:00,50.5,48.0,30.20,ENE,68,0.0,3.0,91,0.00,,,0.00,meteohub,2013-05-13 01:33:00,
2013-05-13 03:48:00,50.5,48.0,30.20,ENE,68,0.0,1.0,91,0.00,,,0.00,meteohub,2013-05-13 01:48:00,
2013-05-13 04:03:00,50.7,47.8,30.20,ENE,68,0.0,1.0,90,0.00,,,0.00,meteohub,2013-05-13 02:03:00,
2013-05-13 04:19:00,51.3,48.6,30.20,ENE,68,0.0,1.0,90,0.00,,,0.00,meteohub,2013-05-13 02:19:00,
2013-05-13 04:34:00,51.6,48.7,30.20,ENE,68,0.0,0.0,90,0.00,,,0.00,meteohub,2013-05-13 02:34:00,
2013-05-13 04:49:00,51.4,48.0,30.20,ENE,68,0.0,1.0,88,0.00,,,0.00,meteohub,2013-05-13 02:49:00,
2013-05-13 05:05:00,51.1,47.7,30.20,ENE,68,1.0,3.0,88,0.00,,,0.00,meteohub,2013-05-13 03:05:00,
2013-05-13 05:21:00,50.9,48.0,30.20,ENE,68,0.0,0.0,90,0.00,,,0.00,meteohub,2013-05-13 03:21:00,
2013-05-13 05:36:00,51.6,48.6,30.19,ENE,68,0.0,1.0,89,0.00,,,0.00,meteohub,2013-05-13 03:36:00,
2013-05-13 05:51:00,52.3,48.9,30.19,ENE,68,0.0,1.0,88,0.00,,,0.00,meteohub,2013-05-13 03:51:00,
2013-05-13 06:07:00,52.0,48.4,30.19,ENE,68,0.0,1.0,87,0.00,,,0.00,meteohub,2013-05-13 04:07:00,
2013-05-13 06:22:00,51.6,48.6,30.20,ENE,68,0.0,2.0,89,0.00,,,0.00,meteohub,2013-05-13 04:22:00,
2013-05-13 06:38:00,51.6,48.2,30.20,ENE,68,0.0,1.0,88,0.00,,,0.00,meteohub,2013-05-13 04:38:00,
2013-05-13 06:53:00,51.4,48.4,30.20,ENE,68,0.0,1.0,89,0.00,,,0.00,meteohub,2013-05-13 04:53:00,
2013-05-13 07:08:00,51.3,48.2,30.20,ENE,68,0.0,1.0,89,0.00,,,0.00,meteohub,2013-05-13 05:08:00,
2013-05-13 07:23:00,52.0,48.9,30.21,ENE,68,0.0,0.0,89,0.00,,,0.00,meteohub,2013-05-13 05:23:00,
2013-05-13 07:38:00,52.9,49.5,30.21,ENE,68,0.0,1.0,88,0.00,,,0.00,meteohub,2013-05-13 05:38:00,
2013-05-13 07:54:00,54.1,50.0,30.21,ENE,68,0.0,2.0,86,0.00,,,0.00,meteohub,2013-05-13 05:54:00,
2013-05-13 08:09:00,55.0,50.7,30.22,ENE,68,0.0,1.0,85,0.00,,,0.00,meteohub,2013-05-13 06:09:00,
2013-05-13 08:25:00,57.4,52.7,30.22,ENE,68,0.0,1.0,84,0.00,,,0.00,meteohub,2013-05-13 06:25:00,
2013-05-13 08:40:00,60.1,54.5,30.22,ENE,68,0.0,1.0,81,0.00,,,0.00,meteohub,2013-05-13 06:40:00,
2013-05-13 08:55:00,61.0,54.5,30.22,ENE,68,0.0,1.0,79,0.00,,,0.00,meteohub,2013-05-13 06:55:00,
2013-05-13 09:11:00,60.8,53.4,30.22,West,270,2.0,5.0,76,0.00,,,0.00,meteohub,2013-05-13 07:11:00,
2013-05-13 09:26:00,60.8,53.1,30.22,SSW,203,2.0,5.0,75,0.00,,,0.00,meteohub,2013-05-13 07:26:00,
2013-05-13 09:41:00,61.3,51.6,30.21,WSW,248,2.0,5.0,70,0.00,,,0.00,meteohub,2013-05-13 07:41:00,
2013-05-13 09:57:00,61.7,51.6,30.21,WSW,248,1.0,3.0,69,0.00,,,0.00,meteohub,2013-05-13 07:57:00,
2013-05-13 10:12:00,63.0,50.9,30.21,WNW,293,2.0,7.0,64,0.00,,,0.00,meteohub,2013-05-13 08:12:00,
2013-05-13 10:27:00,63.1,51.8,30.21,WSW,248,2.0,5.0,66,0.00,,,0.00,meteohub,2013-05-13 08:27:00,
2013-05-13 10:42:00,63.9,51.8,30.21,SSE,158,1.0,6.0,65,0.00,,,0.00,meteohub,2013-05-13 08:42:00,
2013-05-13 10:58:00,64.9,52.3,30.21,SW,225,3.0,9.0,63,0.00,,,0.00,meteohub,2013-05-13 08:58:00,
2013-05-13 11:13:00,65.8,51.8,30.21,SSW,203,1.0,5.0,60,0.00,,,0.00,meteohub,2013-05-13 09:13:00,
2013-05-13 11:29:00,66.4,51.6,30.21,SSW,203,2.0,6.0,59,0.00,,,0.00,meteohub,2013-05-13 09:29:00,
2013-05-13 11:44:00,66.0,52.7,30.21,SSW,203,4.0,12.0,62,0.00,,,0.00,meteohub,2013-05-13 09:44:00,
2013-05-13 11:59:00,66.2,53.1,30.21,SSW,203,5.0,11.0,62,0.00,,,0.00,meteohub,2013-05-13 09:59:00,
2013-05-13 12:14:00,66.6,53.1,30.21,WSW,248,6.0,10.0,62,0.00,,,0.00,meteohub,2013-05-13 10:14:00,
2013-05-13 12:30:00,65.7,53.2,30.20,WSW,248,8.0,13.0,64,0.00,,,0.00,meteohub,2013-05-13 10:30:00,
2013-05-13 12:45:00,66.2,53.8,30.20,SW,225,5.0,11.0,64,0.00,,,0.00,meteohub,2013-05-13 10:45:00,
2013-05-13 13:00:00,66.4,53.8,30.20,WSW,248,5.0,11.0,64,0.00,,,0.00,meteohub,2013-05-13 11:00:00,
2013-05-13 13:16:00,66.4,53.6,30.20,SW,225,5.0,9.0,63,0.00,,,0.00,meteohub,2013-05-13 11:16:00,
2013-05-13 13:31:00,66.7,54.9,30.19,SW,225,6.0,10.0,65,0.00,,,0.00,meteohub,2013-05-13 11:31:00,
2013-05-13 13:47:00,66.6,54.5,30.18,SSW,203,4.0,8.0,65,0.00,,,0.00,meteohub,2013-05-13 11:47:00,
2013-05-13 14:02:00,66.7,55.0,30.18,WSW,248,6.0,12.0,65,0.00,,,0.00,meteohub,2013-05-13 12:02:00,
2013-05-13 14:18:00,67.5,54.7,30.18,SSW,203,6.0,14.0,63,0.00,,,0.00,meteohub,2013-05-13 12:18:00,
2013-05-13 14:33:00,67.5,55.0,30.17,SW,225,5.0,9.0,64,0.00,,,0.00,meteohub,2013-05-13 12:33:00,
2013-05-13 14:48:00,67.6,55.2,30.17,SSW,203,5.0,11.0,64,0.00,,,0.00,meteohub,2013-05-13 12:48:00,
2013-05-13 15:04:00,67.6,55.6,30.16,South,180,7.0,13.0,65,0.00,,,0.00,meteohub,2013-05-13 13:04:00,
2013-05-13 15:19:00,66.7,55.4,30.16,SSW,203,6.0,12.0,66,0.00,,,0.00,meteohub,2013-05-13 13:19:00,
2013-05-13 15:34:00,67.3,55.8,30.16,West,270,5.0,14.0,66,0.00,,,0.00,meteohub,2013-05-13 13:34:00,
2013-05-13 15:49:00,67.3,55.6,30.16,SSW,203,5.0,12.0,66,0.00,,,0.00,meteohub,2013-05-13 13:49:00,
2013-05-13 16:04:00,67.1,55.6,30.15,SW,225,8.0,13.0,66,0.00,,,0.00,meteohub,2013-05-13 14:04:00,
2013-05-13 16:20:00,66.9,55.6,30.15,SSW,203,6.0,7.0,67,0.00,,,0.00,meteohub,2013-05-13 14:20:00,
2013-05-13 16:35:00,66.9,55.4,30.15,SW,225,8.0,13.0,66,0.00,,,0.00,meteohub,2013-05-13 14:35:00,
2013-05-13 16:50:00,66.6,54.9,30.15,SW,225,5.0,7.0,66,0.00,,,0.00,meteohub,2013-05-13 14:50:00,
2013-05-13 17:05:00,66.7,55.0,30.14,SW,225,1.0,14.0,66,0.00,,,0.00,meteohub,2013-05-13 15:05:00,
2013-05-13 17:20:00,66.2,54.9,30.14,South,180,6.0,13.0,66,0.00,,,0.00,meteohub,2013-05-13 15:20:00,
2013-05-13 17:35:00,66.0,54.9,30.14,SW,225,8.0,12.0,67,0.00,,,0.00,meteohub,2013-05-13 15:35:00,
2013-05-13 17:50:00,65.7,55.2,30.13,SSW,203,3.0,11.0,68,0.00,,,0.00,meteohub,2013-05-13 15:50:00,
2013-05-13 18:06:00,66.6,55.6,30.12,SSW,203,7.0,10.0,68,0.00,,,0.00,meteohub,2013-05-13 16:06:00,
2013-05-13 18:21:00,65.5,55.8,30.12,SSW,203,4.0,10.0,71,0.00,,,0.00,meteohub,2013-05-13 16:21:00,
2013-05-13 18:37:00,65.1,55.8,30.12,South,180,4.0,12.0,71,0.00,,,0.00,meteohub,2013-05-13 16:37:00,
2013-05-13 18:52:00,64.8,55.6,30.12,South,180,5.0,11.0,72,0.00,,,0.00,meteohub,2013-05-13 16:52:00,
2013-05-13 19:07:00,64.6,55.2,30.11,WSW,248,6.0,10.0,71,0.00,,,0.00,meteohub,2013-05-13 17:07:00,
2013-05-13 19:22:00,64.4,55.4,30.11,SSW,203,2.0,9.0,72,0.00,,,0.00,meteohub,2013-05-13 17:22:00,
2013-05-13 19:38:00,64.2,55.4,30.11,South,180,6.0,8.0,73,0.00,,,0.00,meteohub,2013-05-13 17:38:00,
2013-05-13 19:53:00,63.7,55.2,30.11,SSW,203,3.0,9.0,74,0.00,,,0.00,meteohub,2013-05-13 17:53:00,
2013-05-13 20:08:00,63.3,55.2,30.11,SW,225,3.0,7.0,75,0.00,,,0.00,meteohub,2013-05-13 18:08:00,
2013-05-13 20:23:00,62.8,55.0,30.10,SSW,203,3.0,7.0,76,0.00,,,0.00,meteohub,2013-05-13 18:23:00,
2013-05-13 20:39:00,62.1,54.7,30.10,SW,225,0.0,7.0,77,0.00,,,0.00,meteohub,2013-05-13 18:39:00,
2013-05-13 20:55:00,61.2,54.7,30.10,SW,225,2.0,5.0,79,0.00,,,0.00,meteohub,2013-05-13 18:55:00,
2013-05-13 21:10:00,61.0,54.7,30.10,SW,225,0.0,1.0,80,0.00,,,0.00,meteohub,2013-05-13 19:10:00,
2013-05-13 21:25:00,60.4,54.5,30.09,SSW,203,1.0,3.0,81,0.00,,,0.00,meteohub,2013-05-13 19:25:00,
2013-05-13 21:41:00,60.1,54.5,30.09,SSW,203,1.0,3.0,82,0.00,,,0.00,meteohub,2013-05-13 19:41:00,
2013-05-13 21:56:00,59.9,54.3,30.09,SSW,203,0.0,3.0,82,0.00,,,0.00,meteohub,2013-05-13 19:56:00,
2013-05-13 22:12:00,59.7,54.5,30.10,SSW,203,0.0,3.0,83,0.00,,,0.00,meteohub,2013-05-13 20:12:00,
2013-05-13 22:27:00,59.7,54.5,30.10,SSW,203,1.0,3.0,83,0.00,,,0.00,meteohub,2013-05-13 20:27:00,
2013-05-13 22:42:00,59.5,54.7,30.10,SSW,203,0.0,2.0,84,0.00,,,0.00,meteohub,2013-05-13 20:42:00,
2013-05-13 22:58:00,59.4,54.5,30.10,SSW,203,0.0,3.0,84,0.00,,,0.00,meteohub,2013-05-13 20:58:00,
2013-05-13 23:13:00,58.8,54.0,30.10,SSW,203,1.0,3.0,84,0.00,,,0.00,meteohub,2013-05-13 21:13:00,
2013-05-13 23:28:00,58.6,53.8,30.10,SSW,203,0.0,5.0,84,0.00,,,0.00,meteohub,2013-05-13 21:28:00,
2013-05-13 23:43:00,58.6,53.8,30.10,SSW,203,0.0,2.0,84,0.00,,,0.00,meteohub,2013-05-13 21:43:00,
2013-05-13 23:59:00,58.5,53.6,30.09,SSW,203,0.0,1.0,84,0.00,,,0.00,meteohub,2013-05-13 21:59:00,